x

8413320 - Bar Harbor, Me (atgm1) Weather Station

3:54 - Sun 30th Apr 2017 All times are EDT. -4 hours from GMT.

  • Wind
    8mph, 10mph gusts
  • Sea Temp 43°f
  • Aire Temp 53°f
  • Sea Pressure 1022.4mb
  • 8413320 - Bar Harbor, Me
  • 8413320 - Bar Harbor, Me

More Historic Weather Station data

Upgrade to MSW Pro to gain access to the past 30 days of data for over 8000 Wavebouys and Weather Stations around the globe.

Join Pro

Comparision Forecast

View Surf forecast
   
dom 04/30 3:54 8 10 mph 1022.4mb 43f 53f
3:48 8 11 mph 1022.3mb 43f 53f
3:42 8 11 mph 1022.4mb 43f 53f
3:36 7 11 mph 1022.3mb 44f 53f
3:30 9 13 mph 1022.2mb 44f 53f
3:24 8 9 mph 1022.3mb 44f 53f
3:18 7 8 mph 1022.5mb 44f 53f
3:12 8 11 mph 1022.6mb 44f 53f
3:06 6 9 mph 1022.7mb 44f 53f
3:00 6 11 mph 1022.7mb 44f 53f
2:54 9 11 mph 1022.8mb 44f 53f
2:48 9 10 mph 1022.9mb 44f 53f
2:42 7 9 mph 1022.8mb 43f 52f
2:36 6 14 mph 1022.8mb 43f 53f
2:30 7 9 mph 1022.9mb 43f 53f
2:24 7 9 mph 1023.1mb 43f 52f
2:18 6 7 mph 1023.1mb 43f 52f
2:12 6 8 mph 1023.1mb 43f 52f
2:06 7 9 mph 1023.3mb 43f 52f
2:00 9 11 mph 1023.4mb 43f 52f
1:54 8 9 mph 1023.4mb 43f 51f
1:48 8 10 mph 1023.2mb 43f 51f
1:42 6 9 mph 1023mb 43f 51f
1:36 8 9 mph 1023.1mb 43f 50f
1:30 8 10 mph 1023.1mb 43f 51f
1:24 8 9 mph 1023.1mb 43f 51f
1:18 7 10 mph 1023.1mb 43f 50f
1:12 7 8 mph 1023.4mb 43f 50f
1:06 7 11 mph 1023.5mb 43f 50f
1:00 8 11 mph 1023.4mb 43f 50f
12:54 7 9 mph 1023.4mb 43f 49f
12:48 7 9 mph 1023.4mb 43f 49f
12:42 6 10 mph 1023.4mb 43f 49f
12:36 5 8 mph 1023.4mb 43f 49f
12:30 5 7 mph 1023.7mb 43f 48f
12:24 6 7 mph 1023.7mb 43f 48f
12:18 5 7 mph 1023.6mb 44f 48f
12:12 6 8 mph 1023.7mb 43f 48f
12:06 5 6 mph 1023.8mb 44f 47f
12:00 5 7 mph 1023.8mb 44f 47f
11:54 2 6 mph 1023.9mb 44f 47f
11:48 3 7 mph 1023.8mb 44f 47f
11:42 5 8 mph 1023.9mb 44f 46f
11:36 7 9 mph 1023.9mb 44f 46f
11:30 6 8 mph 1023.7mb 44f 46f
11:24 6 9 mph 1023.5mb 44f 46f
11:18 6 9 mph 1023.7mb 44f 45f
11:12 9 11 mph 1023.7mb 44f 45f
11:06 9 15 mph 1023.8mb 44f 45f
11:00 11 14 mph 1024mb 44f 45f
10:54 10 14 mph 1024.2mb 44f 45f
10:48 10 13 mph 1024.1mb 44f 45f
10:42 10 13 mph 1023.8mb 44f 44f
10:36 8 10 mph 1023.7mb 44f 44f
10:30 7 13 mph 1023.6mb 44f 44f
10:24 11 16 mph 1023.7mb 44f 44f
10:18 10 15 mph 1023.3mb 44f 44f
10:12 11 17 mph 1023.3mb 44f 44f
10:06 9 15 mph 1023.3mb 44f 44f
10:00 9 14 mph 1023.4mb 44f 43f
9:54 11 17 mph 1023.4mb 44f 43f
9:48 13 16 mph 1023.5mb 44f 43f
9:42 11 16 mph 1023.5mb 44f 43f
9:36 10 15 mph 1023.2mb 44f 43f
9:30 10 17 mph 1023.4mb 44f 43f
9:24 10 17 mph 1023.5mb 44f 42f
9:18 11 20 mph 1023.3mb 44f 42f
9:12 10 20 mph 1023.3mb 44f 42f
9:06 8 16 mph 1023.2mb 44f 42f
9:00 11 16 mph 1023.1mb 44f 42f
8:48 9 18 mph 1023.3mb 44f 42f
8:42 11 18 mph 1023.3mb 44f 42f
8:36 10 17 mph 1023.2mb 44f 42f
8:30 7 15 mph 1023.2mb 44f 42f
8:24 8 16 mph 1022.8mb 44f 41f
8:18 8 16 mph 1022.6mb 44f 41f
8:12 11 21 mph 1022.6mb 44f 41f
8:06 14 24 mph 1022.5mb 44f 40f
8:00 9 22 mph 1022.8mb 44f 40f
7:54 10 25 mph 1022.6mb 44f 40f
7:48 16 23 mph 1022.7mb 44f 40f
7:42 9 24 mph 1022.9mb 44f 40f
7:36 14 22 mph 1022.7mb 44f 40f
7:30 17 24 mph 1022.7mb 44f 40f
7:24 15 22 mph 1022.9mb 44f 40f
7:18 13 21 mph 1022.9mb 44f 40f
7:12 16 24 mph 1022.7mb 44f 40f
7:06 14 20 mph 1022.6mb 44f 40f
7:00 13 16 mph 1022.7mb 44f 40f
6:54 11 21 mph 1022.8mb 44f 40f
6:48 13 23 mph 1022.7mb 44f 40f
6:42 13 21 mph 1022.5mb 44f 40f
6:36 14 18 mph 1022.4mb 44f 40f
6:30 13 21 mph 1022.4mb 44f 40f
6:24 14 22 mph 1022.2mb 44f 40f
6:18 13 22 mph 1022.1mb 44f 40f
6:12 13 18 mph 1022.1mb 44f 40f
6:06 13 22 mph 1022.1mb 44f 40f
6:00 16 22 mph 1021.8mb 44f 40f
5:30 11 18 mph 1021.6mb 44f 40f
5:24 10 17 mph 1021.4mb 44f 40f
5:18 11 16 mph 1021.2mb 44f 41f
5:12 7 13 mph 1021.2mb 44f 41f
5:06 10 18 mph 1021.1mb 44f 41f
5:00 8 17 mph 1020.8mb 44f 41f
4:54 10 20 mph 1020.6mb 44f 41f
4:48 11 18 mph 1020.7mb 44f 41f
4:42 13 24 mph 1020.6mb 44f 42f
4:36 17 23 mph 1020.4mb 44f 42f
4:30 10 17 mph 1020.3mb 44f 42f
4:24 11 23 mph 1020.4mb 44f 42f
4:18 11 22 mph 1020.1mb 44f 42f
4:12 14 22 mph 1019.9mb 44f 43f
4:06 14 21 mph 1019.6mb 44f 43f
4:00 17 24 mph 1019.5mb 44f 43f
3:54 20 26 mph 1019.4mb 44f 43f
3:48 15 24 mph 1019.8mb 44f 43f
3:42 13 24 mph 1019.6mb 44f 44f
3:36 11 25 mph 1019.5mb 44f 44f
3:30 14 23 mph 1019.2mb 44f 44f
3:24 13 20 mph 1019mb 44f 44f
3:18 10 23 mph 1019.1mb 44f 45f
3:12 16 25 mph 1019mb 44f 45f
3:06 16 24 mph 1018.7mb 44f 45f
3:00 16 23 mph 1018.5mb 44f 45f
2:54 18 25 mph 1018.3mb 44f 45f
2:48 17 25 mph 1018.3mb 44f -
2:42 14 21 mph 1018.2mb 44f -
2:36 15 22 mph 1018.1mb 44f -
2:30 17 22 mph 1017.7mb 44f 46f
2:24 15 24 mph 1017.7mb 44f 46f
2:18 15 20 mph 1017.7mb 44f 46f
2:12 9 16 mph 1017.7mb 44f 46f
2:06 14 21 mph 1017.6mb 44f 47f
2:00 15 25 mph 1017.2mb 44f 47f
1:54 18 25 mph 1016.8mb 44f 47f
1:48 17 21 mph 1016.9mb 44f 48f
1:42 17 22 mph 1016.9mb 44f 48f
1:36 17 22 mph 1016.7mb 44f 48f
1:30 20 24 mph 1016.6mb 44f 48f
1:24 20 25 mph 1016.3mb 44f 48f
1:18 22 25 mph 1016.1mb 44f 49f
1:12 20 25 mph 1016.1mb 44f 49f
1:06 21 26 mph 1015.9mb 44f 50f
1:00 20 24 mph 1015.7mb 44f 50f
12:54 21 28 mph 1015.5mb 44f 51f
12:48 23 26 mph 1015.4mb 44f 51f
12:42 22 28 mph 1015.2mb 44f 52f
12:36 22 28 mph 1014.9mb 44f 52f
12:30 24 29 mph 1014.8mb 45f 52f
12:24 24 29 mph 1014.7mb 45f 53f
12:18 21 26 mph 1014.8mb 44f 53f
12:12 22 28 mph 1014.7mb 45f 54f
12:06 18 24 mph 1014.6mb 44f 54f
12:00 22 26 mph 1014.5mb 43f 55f
sáb 04/29 11:54 22 28 mph 1014.3mb 43f 55f
11:48 18 24 mph 1014.2mb 43f 55f
11:42 20 24 mph 1014mb 43f 55f
11:36 18 24 mph 1013.9mb 43f 55f
11:30 22 28 mph 1013.7mb 43f 55f
11:24 18 25 mph 1013.7mb 43f 55f
11:18 15 23 mph 1013.5mb 43f 55f
11:12 14 25 mph 1013.2mb 43f 56f
11:06 13 24 mph 1012.9mb 43f 57f
11:00 15 25 mph 1012.8mb 43f 57f
10:54 15 25 mph 1012.4mb 43f 58f
10:48 17 25 mph 1012.3mb 43f 58f
10:42 21 29 mph 1011.9mb 43f 59f
10:36 20 24 mph 1011.5mb 43f 60f
10:30 22 28 mph 1011mb 43f 61f
10:24 21 25 mph 1010.5mb 43f 62f
10:18 21 24 mph 1010.5mb 43f 63f
10:12 18 22 mph 1010.3mb 43f 62f
10:06 18 23 mph 1010.3mb 43f 63f
10:00 20 23 mph 1010.1mb 43f 63f
9:54 22 25 mph 1009.9mb 43f 63f
9:48 20 22 mph 1009.8mb 43f 62f
9:42 20 21 mph 1009.8mb 43f 62f
9:36 17 20 mph 1009.8mb 43f 62f
9:30 17 20 mph 1009.6mb 43f 63f
9:24 15 21 mph 1009.4mb 43f 62f
9:18 13 15 mph 1009.3mb 43f 62f
9:12 16 20 mph 1009.1mb 43f 64f
9:06 17 21 mph 1008.9mb 43f 65f
9:00 18 23 mph 1008.8mb 43f 65f
8:48 18 23 mph 1008.4mb 43f 67f
8:42 17 26 mph 1008.2mb 43f 66f
8:36 21 26 mph 1007.9mb 43f 67f
8:30 22 32 mph 1007.9mb 43f 68f
8:24 20 28 mph 1007.8mb 43f 68f
8:18 24 29 mph 1007.7mb 44f 68f
8:12 24 33 mph 1007.6mb 44f 68f
8:06 23 29 mph 1007.4mb 43f 67f
8:00 21 29 mph 1007.3mb 43f 69f
7:54 16 28 mph 1007.1mb 43f 68f
7:48 11 14 mph 1007.1mb 43f 67f
7:42 11 13 mph 1006.9mb 43f 66f
7:36 11 14 mph 1006.8mb 43f 68f
7:30 10 13 mph 1006.6mb 43f 68f
7:24 9 13 mph 1006.5mb 43f 69f
7:18 8 13 mph 1006.4mb 43f 69f
7:12 9 10 mph 1006.2mb 43f 69f
7:06 9 15 mph 1006mb 43f 70f
7:00 8 13 mph 1005.9mb 43f 70f
6:48 9 15 mph 1005.7mb 43f 71f
6:42 9 13 mph 1005.4mb 43f 71f
6:36 11 15 mph 1005.2mb 43f 71f
6:30 9 16 mph 1005.1mb 43f 71f
6:24 10 14 mph 1004.9mb 43f 71f
6:18 8 13 mph 1004.8mb 43f 72f
6:12 8 14 mph 1004.7mb 43f 72f
6:06 9 15 mph 1004.7mb 43f 71f
6:00 9 15 mph 1004.7mb 43f 72f
5:48 9 16 mph 1004.7mb 43f 73f
5:42 10 16 mph 1004.8mb 43f 73f
5:36 11 15 mph 1004.7mb 43f 73f
5:30 9 15 mph 1004.8mb 43f 73f
5:24 9 16 mph 1004.9mb 43f 73f
5:18 13 15 mph 1004.8mb 43f 72f
5:12 11 18 mph 1004.9mb 42f 72f
5:06 11 18 mph 1005mb 42f 72f
5:00 9 16 mph 1005.1mb 42f 72f
4:54 13 17 mph 1005mb 42f 72f
4:48 13 16 mph 1005.1mb 42f 72f
4:42 10 15 mph 1005mb 42f 72f
4:36 11 16 mph 1005mb 43f 72f
4:30 7 17 mph 1005mb 42f 72f
4:24 11 15 mph 1004.9mb 42f 73f
4:18 6 16 mph 1004.9mb 42f 73f
4:12 10 14 mph 1005mb 42f 73f
4:06 9 14 mph 1004.9mb 42f 73f
4:00 8 14 mph 1004.9mb 42f 73f
3:54 10 15 mph 1004.9mb 42f 73f
3:48 7 14 mph 1005mb 42f 73f
3:42 13 17 mph 1005.1mb 42f 73f
3:36 8 15 mph 1005.2mb 43f 73f
3:30 9 14 mph 1005.4mb 43f 72f
3:24 8 11 mph 1005.6mb 43f 72f
3:18 8 10 mph 1005.8mb 42f 71f
3:12 8 14 mph 1005.9mb 43f 70f
3:06 9 15 mph 1006.1mb 43f 70f
3:00 11 15 mph 1006.2mb 44f 70f
2:54 10 15 mph 1006.3mb 43f 71f
2:48 11 18 mph 1006.5mb 43f 72f
2:42 13 20 mph 1006.5mb 43f 73f
2:36 11 17 mph 1006.5mb 42f 73f
2:30 13 18 mph 1006.5mb 42f 73f
2:24 10 17 mph 1006.6mb 42f 72f
2:18 8 10 mph 1006.5mb 42f 72f
2:12 6 9 mph 1006.7mb 42f 72f
2:06 6 9 mph 1006.7mb 42f 71f
2:00 6 8 mph 1006.8mb 42f 71f
1:54 7 11 mph 1006.9mb 42f 71f
1:48 8 13 mph 1007mb 42f 70f
1:42 8 11 mph 1007mb 42f 70f
1:36 10 16 mph 1007.1mb 42f 70f
1:30 11 18 mph 1007.2mb 42f 70f
1:24 13 20 mph 1007.2mb 42f 70f
1:18 9 18 mph 1007.2mb 42f 69f
1:12 10 17 mph 1007.3mb 42f 69f
1:06 11 17 mph 1007.3mb 42f 70f
1:00 10 15 mph 1007.4mb 42f 70f
12:54 9 14 mph 1007.5mb 42f 70f
12:48 7 9 mph 1007.5mb 42f 69f
12:42 1 6 mph 1007.9mb 42f 62f
12:36 2 8 mph 1008.1mb 42f 62f
12:30 5 8 mph 1008.5mb 42f 62f
12:24 2 5 mph 1008.5mb 42f 58f
12:18 2 6 mph 1008.7mb 42f 57f
12:12 2 5 mph 1009mb 43f 55f
12:06 3 5 mph 1009.2mb 42f 54f
12:00 3 6 mph 1009.6mb 42f 56f
11:54 3 6 mph 1009.8mb 42f 57f
11:48 3 15 mph 1009.7mb 42f -
11:42 8 16 mph 1009.9mb 42f -
11:36 8 17 mph 1010mb 42f -
11:30 9 18 mph 1009.9mb 43f -
11:24 10 15 mph 1009.9mb 42f -
11:18 5 10 mph 1010.1mb 43f 51f
11:12 5 8 mph 1010.4mb 42f 49f
11:06 8 10 mph 1010.5mb 43f 48f
11:00 8 9 mph 1010.5mb 43f 47f
10:54 8 9 mph 1010.5mb 43f 47f
10:48 6 9 mph 1010.5mb 43f 47f
10:42 6 8 mph 1010.3mb 42f 47f
10:36 6 7 mph 1010.3mb 42f 47f
10:30 3 5 mph 1010.4mb 42f 47f
10:24 1 2 mph 1010.3mb 43f 48f
10:18 3 6 mph 1010.6mb 43f 47f
10:12 1 3 mph 1010.8mb 43f 47f
10:06 3 5 mph 1010.8mb 43f 46f
10:00 1 3 mph 1010.9mb 43f 47f
9:54 2 3 mph 1011mb 43f 46f
9:48 2 3 mph 1011.2mb 43f 47f
9:42 1 3 mph 1011.3mb 43f 46f
9:36 2 6 mph 1011.3mb 43f 45f
9:30 5 7 mph 1011.1mb 43f 45f
9:24 7
mph
1011.2mb 43f 45f
9:18 6
mph
1011.4mb 43f 46f
9:12 3 6 mph 1011.8mb 43f 46f
9:06 3 5 mph 1011.8mb 43f 46f
9:00 2
mph
1011.7mb 43f 46f
8:54 2 3 mph 1011.6mb 43f 46f
8:48 1 3 mph 1011.7mb 43f 46f
8:42 3 5 mph 1011.6mb 43f 45f
8:36 1 5 mph 1011.4mb 43f 44f
8:30 2 3 mph 1011.5mb 43f 44f
8:24  -  2 mph 1011.7mb 43f 43f
8:18  -  2 mph 1012mb 43f 44f
8:12  -  1 mph 1012.3mb 43f 44f
8:06  -  2 mph 1012.4mb 43f 44f
8:00 2
mph
1012.6mb 43f 43f
7:54 2 3 mph 1012.5mb 43f 43f
7:48 2 3 mph 1012.4mb 43f 44f
7:42  -  1 mph 1012.4mb 43f 44f
7:36  -  1 mph 1012.5mb 43f 44f
7:30  -  2 mph 1012.7mb 43f 44f
7:24  -  1 mph 1012.7mb 43f 44f
7:18  -  mph 1012.6mb 43f 44f
7:12  -  2 mph 1012.5mb 43f 44f
7:06 1 2 mph 1012.7mb 43f 44f
7:00 2
mph
1012.7mb 43f 43f
6:54 2 3 mph 1012.6mb 43f 43f
6:48 2 3 mph 1012.7mb 43f 44f
6:42 2 3 mph 1012.7mb 43f 44f
6:36 2 3 mph 1012.5mb 43f 43f
6:30 2 3 mph 1012.6mb 43f 43f
6:24  -  1 mph 1012.8mb 43f 43f
6:18  -  1 mph 1012.8mb 43f 43f
6:12  -  1 mph 1012.8mb 43f 43f
6:06  -  mph 1012.9mb 43f 42f
6:00  -  2 mph 1012.8mb 43f 42f
5:54 2
mph
1012.8mb 43f 42f
5:48 2 5 mph 1012.9mb 43f 42f
5:42 2 3 mph 1012.9mb 43f 42f
5:36 2 5 mph 1012.9mb 43f 42f
5:30 2 5 mph 1012.7mb 43f 42f
5:24 2 5 mph 1012.7mb 43f 43f
5:18 5 7 mph 1012.8mb 43f 43f
5:12 6 7 mph 1012.9mb 43f 43f
5:06 3 5 mph 1013mb 43f 43f
5:00 2 6 mph 1013.1mb 43f 43f
4:54 3 5 mph 1013.2mb 43f 43f
4:48 3 7 mph 1013.2mb 43f 43f
4:42 3 6 mph 1013mb 42f 43f
4:36 2 3 mph 1013mb 42f 44f
4:30 2 3 mph 1012.9mb 42f 44f
4:24 2 5 mph 1012.9mb 42f 44f
4:18 3 5 mph 1012.9mb 42f 44f
4:12 2 3 mph 1012.8mb 42f 45f
4:06 2 3 mph 1012.9mb 42f 45f
4:00  -  2 mph 1012.9mb 43f 45f
3:54 2
mph
1013mb 43f 44f
3:48 1 2 mph 1013mb 42f 44f
3:42 2 3 mph 1013.1mb 43f 44f
3:36 3
mph
1013.1mb 43f 44f
3:30  -  1 mph 1013.2mb 43f 45f
3:24  -  1 mph 1013.2mb 43f 46f
3:18 1 3 mph 1013.2mb 43f 45f
3:12 3 5 mph 1013.3mb 43f 45f
3:06 3 5 mph 1013.3mb 43f 45f
3:00 3 5 mph 1013.6mb 43f 45f
2:54 1 2 mph 1013.6mb 43f 45f
2:48 2 6 mph 1013.5mb 43f 45f
2:42 3 5 mph 1013.3mb 43f 46f
2:36  -  2 mph 1013.1mb 43f 46f
2:30 2 8 mph 1013mb 43f 46f
2:24 5 6 mph 1013mb 43f 46f
2:18 3 5 mph 1012.9mb 43f 46f
2:12 2 3 mph 1013mb 43f 47f
2:06  -  3 mph 1012.8mb 43f 46f
2:00 2 7 mph 1012.6mb 43f 46f
1:54 8 10 mph 1012.5mb 43f 47f
1:48 9 10 mph 1012.5mb 43f -
1:42 3 6 mph 1012.6mb 43f -
1:36 5 6 mph 1012.7mb 43f -
1:30 3 6 mph 1012.9mb 43f 45f
1:24 5
mph
1013.1mb 43f 45f
1:18 5 6 mph 1013.1mb 42f 45f
1:12 6
mph
1013.2mb 42f 45f
1:06 5
mph
1013.1mb 43f 46f
1:00  -  1 mph 1013mb 43f 45f
12:54 2 3 mph 1013mb 43f 46f
12:48 3
mph
1013mb 42f 45f
12:42 2
mph
1013mb 42f 45f
12:36  -  1 mph 1013.2mb 42f 44f
12:30  -  1 mph 1013.2mb 42f 44f
12:24  -  1 mph 1013.2mb 42f 44f
12:18 1
mph
1013.3mb 42f 44f
12:12  -  mph 1013.4mb 42f 44f
12:06  -  mph 1013.3mb 42f 44f
12:00  -  1 mph 1013.4mb 42f 44f
vie 04/28 11:54  -  1 mph 1013.3mb 42f 44f
11:48  -  1 mph 1013.3mb 42f 44f
11:42 1
mph
1013.2mb 42f 44f
11:36 1 2 mph 1013.3mb 42f 44f
11:30  -  1 mph 1013.2mb 42f 44f
11:24  -  1 mph 1013.2mb 42f 44f
11:18  -  mph 1013.2mb 42f 44f
11:12  -  2 mph 1013.2mb 42f 44f
11:06 1
mph
1013.2mb 42f 44f
11:00  -  mph 1013.1mb 42f 45f
10:54  -  1 mph 1013.1mb 42f 45f
10:48  -  2 mph 1013.2mb 42f 45f
10:42  -  2 mph 1013.3mb 42f 45f
10:36  -  1 mph 1013.4mb 42f 45f
10:30  -  2 mph 1013.4mb 42f 45f
10:24 1 2 mph 1013.4mb 42f 44f
10:18 1 2 mph 1013.4mb 42f 44f
10:12  -  mph 1013.6mb 42f 45f
10:06  -  1 mph 1013.6mb 42f 45f
10:00  -  2 mph 1013.6mb 42f 45f
9:54 2 5 mph 1013.7mb 42f 44f
9:48 5
mph
1013.5mb 42f 44f
9:42 3 5 mph 1013.5mb 42f 44f
9:36 5
mph
1013.3mb 42f 44f
9:30 2
mph
1013.3mb 42f 44f
9:24  -  1 mph 1013.3mb 42f 45f
9:18 1 2 mph 1013.2mb 42f 45f
9:12  -  2 mph 1013.2mb 43f 45f
9:06 1 3 mph 1013.1mb 43f 44f
9:00  -  2 mph 1013mb 43f 44f
8:48 1 3 mph 1013.2mb 43f 44f
8:42 5 6 mph 1013.2mb 42f 44f
8:36 2 3 mph 1013.2mb 43f 44f
8:30 2 3 mph 1013.1mb 43f 44f
8:24 2 3 mph 1013mb 43f 44f
8:18 2
mph
1012.8mb 43f 44f
8:12  -  3 mph 1012.8mb 43f 44f
8:06 2 3 mph 1012.6mb 43f 43f
8:00 3 8 mph 1012.4mb 43f 43f
7:48 5 6 mph 1012.4mb 43f 43f
7:42 2 3 mph 1012.6mb 43f 44f
7:36  -  2 mph 1012.7mb 43f 44f
7:30  -  1 mph 1012.9mb 43f 44f
7:24  -  2 mph 1012.7mb 43f 44f
7:18 3 5 mph 1012.6mb 43f 43f
7:12 5 6 mph 1012.5mb 43f 43f
7:06 5 6 mph 1012.5mb 43f 43f
7:00 6 7 mph 1012.5mb 43f 43f
6:54 3 6 mph 1012.4mb 43f 44f
6:48 6 7 mph 1012.3mb 43f 43f
6:42 6 8 mph 1012.4mb 43f 43f
6:36 3 7 mph 1012.4mb 43f 44f
6:30 6 8 mph 1012.4mb 43f 44f
6:24 7 9 mph 1012.3mb 43f 44f
6:18 6 8 mph 1012.2mb 43f 44f
6:12 2 6 mph 1012.3mb 43f 46f
6:06 5 6 mph 1012.2mb 43f 46f
6:00 3 8 mph 1012.2mb 43f 46f
5:48 6 7 mph 1012.2mb 43f 46f
5:42 3 8 mph 1012.1mb 43f 46f
5:36 6 9 mph 1012mb 43f 46f
5:30 7 9 mph 1011.9mb 43f 46f
5:24 5 6 mph 1012mb 43f 46f
5:18 2 3 mph 1012.1mb 43f 47f
5:12 3 7 mph 1012mb 43f 46f
5:06 6 8 mph 1011.8mb 43f 46f
5:00 6 8 mph 1011.5mb 43f 46f
4:54 6 8 mph 1011.5mb 43f 46f
4:48 7 10 mph 1011.6mb 43f 45f
4:42 8 9 mph 1011.8mb 43f 45f
4:36 7 11 mph 1012mb 43f 45f
4:30 9 11 mph 1012mb 43f 45f
4:24 6 13 mph 1012.2mb 43f 45f
4:18 10 13 mph 1012.2mb 43f 45f
4:12 9 11 mph 1012.5mb 43f 45f
4:06 8 10 mph 1012.6mb 43f 45f
4:00 6 10 mph 1012.7mb 42f 45f
3:54 8 9 mph 1012.8mb 42f 44f
3:48 8 9 mph 1013.1mb 42f 44f
3:42 6 7 mph 1013.2mb 42f 45f
3:36 5 7 mph 1013.3mb 42f 45f
3:30 6 10 mph 1013.3mb 42f 45f
3:24 7 9 mph 1013.4mb 42f 45f
3:18 7 9 mph 1013.4mb 42f 45f
3:12 6 8 mph 1013.4mb 42f 45f
3:06 7 8 mph 1013.3mb 42f 45f
3:00 6 8 mph 1013.2mb 42f 46f
2:54 9 11 mph 1013.2mb 42f 45f
2:48 7 8 mph 1013.2mb 43f 46f
2:42 5 6 mph 1013.3mb 42f 46f
2:36 5 8 mph 1013.4mb 43f 45f
2:30 6 8 mph 1013.4mb 43f 45f
2:24 6 7 mph 1013.4mb 43f 45f
2:18 6 7 mph 1013.5mb 43f 45f
2:12 2 3 mph 1013.6mb 43f 46f
2:06 3 7 mph 1013.8mb 43f 46f
2:00 6 7 mph 1013.7mb 43f 46f
1:54 2 6 mph 1014mb 42f 46f
1:48 6 8 mph 1013.9mb 43f 46f
1:42 5 6 mph 1013.8mb 43f 46f
1:36 5 7 mph 1013.9mb 43f 46f
1:30 5 6 mph 1013.8mb 43f 46f
1:24 5
mph
1013.8mb 43f 46f
1:18 1 3 mph 1013.9mb 43f 46f
1:12 2 6 mph 1013.8mb 43f 46f
1:06 5 6 mph 1013.8mb 43f 46f
1:00 2 5 mph 1013.9mb 42f 46f
12:54 3 5 mph 1013.8mb 42f 46f
12:48 3 6 mph 1013.8mb 42f 46f
12:42 6 7 mph 1013.7mb 42f 46f
12:36 5 7 mph 1013.9mb 42f 46f
12:30 3 9 mph 1014mb 42f 47f
12:24 7 9 mph 1013.7mb 42f 46f
12:18 6 8 mph 1014mb 42f 44f
12:12 7
mph
1014.2mb 42f 44f
12:06 5 6 mph 1014.2mb 42f 44f
12:00 6
mph
1014.4mb 43f 45f
11:54 6 8 mph 1014.5mb 42f 44f
11:48 8
mph
1014.4mb 42f 45f
11:42 6 7 mph 1014.6mb 42f 46f
11:36 5 7 mph 1014.5mb 42f 46f
11:30 2 7 mph 1014.5mb 42f 46f
11:24 5 9 mph 1014.6mb 42f 46f
11:18 6 8 mph 1014.5mb 42f 46f
11:12 5 10 mph 1014.5mb 42f 46f
11:06 7 8 mph 1014.2mb 42f 45f
11:00 6 8 mph 1014.1mb 42f 46f
10:54 6 7 mph 1014.2mb 42f 47f
10:48 6 8 mph 1014.4mb 42f 48f
10:42 6 7 mph 1014.4mb 42f 48f
10:36 2 7 mph 1014.4mb 42f 49f
10:30 2 6 mph 1014.5mb 42f 50f
10:24 2 8 mph 1014.3mb 42f 49f
10:18 6 10 mph 1014.2mb 42f 49f
10:12 6 10 mph 1014.1mb 42f 48f
10:06 5 8 mph 1014.2mb 42f 48f
10:00 6 9 mph 1014.4mb 42f 47f
9:54 6 9 mph 1014.4mb 42f 47f
9:48 6 9 mph 1014.5mb 42f 47f
9:42 6 9 mph 1014.5mb 42f 47f
9:36 6 8 mph 1014.4mb 42f 46f
9:30 2 5 mph 1014.6mb 42f 47f
9:24 3 8 mph 1014.6mb 42f 46f
9:18 3 7 mph 1014.7mb 42f 46f
9:12 5 7 mph 1014.6mb 42f 46f
9:06  -  3 mph 1014.7mb 42f 46f
9:00 3 6 mph 1014.8mb 42f 45f
8:54 1 3 mph 1014.6mb 42f 46f
8:48  -  2 mph 1014.4mb 42f 46f
8:42  -  1 mph 1014.6mb 42f 45f
8:36 2
mph
1014.8mb 42f 45f
8:30  -  mph 1014.8mb 42f 45f
8:24 1 2 mph 1014.7mb 42f 45f
8:18  -  2 mph 1014.6mb 42f 44f
8:12 1 3 mph 1014.6mb 42f 44f
8:06 2 6 mph 1014.6mb 42f 43f
8:00 3 7 mph 1014.6mb 42f 43f
7:30  -  1 mph 1014.4mb 42f 44f
7:24 2 3 mph 1014.3mb 42f 44f
7:18 2 3 mph 1014.4mb 42f 44f
7:12 2 3 mph 1014.4mb 42f 44f
7:06 2 3 mph 1014.6mb 42f 44f
7:00 1 2 mph 1014.6mb 42f 44f
6:54  -  1 mph 1014.5mb 42f 44f
6:48 2 6 mph 1014.6mb 42f 44f
6:42 6 7 mph 1014.7mb 42f 44f
6:36 6 7 mph 1014.6mb 42f 44f
6:30 5 6 mph 1014.5mb 42f 44f
6:24 3 6 mph 1014.5mb 42f 44f
6:18 2 5 mph 1014.5mb 42f 44f
6:12 2 5 mph 1014.4mb 42f 44f
6:06 3 5 mph 1014.4mb 42f 44f
6:00 3 5 mph 1014.4mb 42f 43f
5:54 2 6 mph 1014.3mb 42f 44f
5:48 1 5 mph 1014.3mb 42f 44f
5:42  -  2 mph 1014.2mb 42f 44f
5:36 1 2 mph 1014.1mb 42f 43f
5:30  -  2 mph 1014mb 42f 43f
5:24  -  3 mph 1013.9mb 42f 43f
5:18 2 5 mph 1013.9mb 42f 43f
5:12 2 7 mph 1014.1mb 42f 43f
5:06 7 8 mph 1014mb 42f 42f
5:00 3 5 mph 1014mb 42f 42f
4:54 3 5 mph 1014.1mb 42f 42f
4:48 3 8 mph 1014mb 42f 42f
4:42 7 8 mph 1013.8mb 42f 42f
4:36 5 7 mph 1013.8mb 42f 42f
4:30 3 7 mph 1013.8mb 42f 42f
4:24 6 9 mph 1013.7mb 42f 42f
4:18 7 9 mph 1013.6mb 42f 42f
4:12 6 8 mph 1013.5mb 42f 42f
4:06 6 7 mph 1013.6mb 42f 42f
4:00 3 6 mph 1013.6mb 42f 42f
3:54 5 7 mph 1013.6mb 42f 42f
3:48 6 8 mph 1013.5mb 42f 42f
3:42 6 7 mph 1013.5mb 42f 42f
3:36 5 7 mph 1013.6mb 42f 42f
3:30 5 7 mph 1013.6mb 42f 42f
3:24 6 10 mph 1013.6mb 42f 42f
3:18 7 10 mph 1013.4mb 42f 42f
3:12 8 9 mph 1013.6mb 42f 42f
3:06 5 8 mph 1013.7mb 42f 42f
3:00 6 8 mph 1013.9mb 42f 42f
2:54 6 8 mph 1013.9mb 42f 42f
2:48 7 8 mph 1014mb 42f 42f
2:42 6 7 mph 1014mb 42f 42f
2:36 6 7 mph 1014.1mb 42f 42f
2:30 3 6 mph 1014.1mb 42f 42f
2:24 5 7 mph 1014.1mb 42f 43f
2:18 2 7 mph 1014mb 42f 42f
2:12 5 6 mph 1013.8mb 42f 42f
2:06 3 7 mph 1013.7mb 42f 42f
2:00 6 8 mph 1013.6mb 42f 42f
1:54 5 8 mph 1013.6mb 42f 42f
1:48 7 8 mph 1013.6mb 42f 42f
1:42 3 5 mph 1013.6mb 42f 43f
1:36 3 5 mph 1013.7mb 42f 43f
1:30 3 6 mph 1013.8mb 42f 43f
1:24 5 6 mph 1013.6mb 42f 43f
1:18 5 7 mph 1013.7mb 42f 43f
1:12 3 6 mph 1013.6mb 42f 43f
1:06 5
mph
1013.7mb 42f 43f
1:00 3
mph
1014mb 42f 43f
12:54 2 5 mph 1014mb 42f 43f
12:48 2 7 mph 1014.2mb 42f 43f
12:42 7 9 mph 1014.1mb 42f 43f
12:36 7 8 mph 1014.1mb 42f 43f
12:30 7 9 mph 1014mb 42f 43f
12:24 2 6 mph 1014mb 42f 44f
12:18 5 7 mph 1014mb 42f 44f
12:12 3 5 mph 1013.8mb 42f 45f
12:06 1 3 mph 1013.8mb 42f 45f
12:00 1 8 mph 1013.9mb 42f 45f
jue 04/27 11:54 10 14 mph 1013.9mb 42f 44f
11:48 11 14 mph 1014mb 42f 43f
11:42 10 13 mph 1013.9mb 42f 43f
11:36 8 11 mph 1013.9mb 42f 43f
11:30 9 11 mph 1013.9mb 42f 43f
11:24 7 9 mph 1013.8mb 42f 43f
11:18 8 9 mph 1013.8mb 42f 43f
11:12 7 8 mph 1013.7mb 42f 44f
11:06 7 8 mph 1013.7mb 42f 44f
11:00 7 8 mph 1013.7mb 42f 44f
10:54 7 9 mph 1013.6mb 42f 43f
10:48 7 8 mph 1013.6mb 42f 43f
10:42 6 8 mph 1013.6mb 42f 44f
10:36 6 8 mph 1013.6mb 42f 43f
10:30 6 7 mph 1013.7mb 42f 44f
10:24 7 9 mph 1013.8mb 42f 44f
10:18 8 9 mph 1013.9mb 42f 44f
10:12 7 11 mph 1014.1mb 42f 44f
10:06 9 11 mph 1014.1mb 42f 44f
10:00 8 10 mph 1014.1mb 42f 44f
9:54 7 9 mph 1014.1mb 42f 44f
9:48 7 8 mph 1014.1mb 42f 44f
9:42 6 7 mph 1014.1mb 42f 44f
9:36 6 10 mph 1014.2mb 42f 44f
9:30 8 10 mph 1014.3mb 41f 44f
9:24 6 13 mph 1014.3mb 42f 44f
9:18 10 14 mph 1014.3mb 42f 44f
9:12 7 9 mph 1014.4mb 42f 45f
9:06 8 10 mph 1014.3mb 42f 45f
9:00 7 14 mph - 42f 46f
8:48 10 11 mph 1013.9mb 42f 46f
8:42 6 10 mph 1013.7mb 42f 47f
8:36 8 10 mph 1013.6mb 42f 47f
8:30 5 6 mph 1013.5mb 42f 47f
8:24 3 6 mph 1013.4mb 42f 47f
8:18 1 3 mph 1013.4mb 42f 47f
8:12  -  1 mph 1013.3mb 42f 47f
8:06  -  2 mph 1013.1mb 42f 47f
8:00  -  3 mph 1013.2mb 42f 47f
7:48 3 6 mph 1013.2mb 42f 47f
7:42 5 9 mph 1013.2mb 42f 46f
7:36 7 9 mph 1013.4mb 42f 46f
7:30 7 10 mph 1013.3mb 42f 46f
7:24 8 10 mph 1013.3mb 42f 47f
7:18 5 8 mph 1013.3mb 42f 47f
7:12 7 9 mph 1013.3mb 42f 47f
7:06 6 9 mph 1013.3mb 42f 47f
7:00 6 9 mph 1013.4mb 42f 47f
6:48 5 7 mph 1013.2mb 42f 48f
6:42 3 7 mph 1013.3mb 42f 48f
6:36 5 8 mph 1013.2mb 42f 48f
6:30 7 10 mph 1013.2mb 42f 48f
6:24 5 7 mph 1013.3mb 42f 48f
6:18 7 13 mph 1013.4mb 42f 47f
6:12 10 13 mph 1013.4mb 42f 47f
6:06 8 10 mph 1013.5mb 42f 47f
6:00 8 11 mph 1013.5mb 42f 48f
5:48 7 9 mph 1013.6mb 42f 48f
5:42 5 6 mph 1013.7mb 42f 49f
5:36 5 6 mph 1013.6mb 42f 48f
5:30 3
mph
1013.5mb 42f 48f
5:24  -  mph 1013.4mb 42f 48f
5:18  -  1 mph 1013.4mb 42f 47f
5:12  -  1 mph 1013.4mb 42f 47f
5:06 1 2 mph 1013.5mb 42f 47f
5:00  -  1 mph 1013.5mb 42f 48f
4:54 1 2 mph 1013.4mb 42f 48f
4:48 1 2 mph 1013.4mb 42f 47f
4:42 1 3 mph 1013.5mb 42f 46f
4:36 5 6 mph 1013.4mb 42f 46f
4:30 5 7 mph 1013.3mb 42f 46f
4:24 6 8 mph 1013.3mb 42f 46f
4:18 7 9 mph 1013.4mb 42f 47f
4:12 6 11 mph 1013.5mb 42f 47f
4:06 8 11 mph 1013.5mb 42f 47f
4:00 7 11 mph 1013.6mb 42f 47f
3:54 10 14 mph 1013.5mb 42f 47f
3:48 13 17 mph 1013.6mb 42f 47f
3:42 13 16 mph 1013.8mb 42f 47f
3:36 11 16 mph 1013.8mb 42f 48f
3:30 9 14 mph 1013.7mb 42f 48f
3:24 8 11 mph 1013.8mb 42f 49f
3:18 6 9 mph 1013.7mb 42f 49f
3:12 7 8 mph 1013.6mb 42f 49f
3:06 7 8 mph 1013.5mb 42f 48f
3:00 7
mph
1013.4mb 42f 48f
2:54 7 8 mph 1013.4mb 42f 47f
2:48 7 9 mph 1013.5mb 42f 48f
2:42 8 10 mph 1013.5mb 42f 48f
2:36 9 14 mph 1013.7mb 42f 47f
2:30 11 14 mph 1013.8mb 42f 48f
2:24 9 14 mph 1013.7mb 42f 48f
2:18 9 14 mph 1013.7mb 42f 49f
2:12 9 11 mph 1013.8mb 42f 49f
2:06 9 13 mph 1013.9mb 42f 49f
2:00 7 10 mph 1013.9mb 42f 49f
1:54 8 9 mph 1013.7mb 42f 49f
1:48 3 5 mph 1013.6mb 42f 50f
1:42 3 5 mph 1013.6mb 42f 50f
1:36 3 5 mph 1013.7mb 42f 49f
1:30 3 6 mph 1013.8mb 42f 49f
1:24 5 7 mph 1013.9mb 42f 48f
1:18 6 7 mph 1013.9mb 42f 48f
1:12 6 7 mph 1014mb 42f 47f
1:06 6 7 mph 1014mb 42f 47f
1:00 5 6 mph 1013.9mb 42f 47f
12:48 6 7 mph 1014mb 42f 47f
12:42 6 7 mph 1014.1mb 42f 47f
12:36 6 8 mph 1014.2mb 42f 47f
12:30 7 8 mph 1014.1mb 42f 47f
12:24 7 10 mph 1014mb 42f 47f
12:18 8 10 mph 1014.1mb 41f 47f
12:12 8 13 mph 1014.1mb 41f 47f
12:06 8 13 mph 1014.1mb 41f 48f
12:00 10 14 mph 1014.2mb 41f 48f
11:54 9 13 mph 1014.2mb 41f 48f
11:48 8 14 mph 1014.2mb 41f 48f
11:42 10 13 mph 1014.2mb 41f 48f
11:36 7 13 mph 1014.2mb 41f 48f
11:30 11 13 mph 1014.1mb 41f 48f
11:24 9 11 mph 1014.1mb 41f 47f
11:18 8 10 mph 1014.2mb 41f 48f
11:12 7 9 mph 1014.2mb 41f 48f
11:06 8 10 mph 1014.3mb 41f 49f
11:00 7 11 mph 1014.2mb 41f 48f
10:54 8 13 mph 1014.3mb 41f 48f
10:48 8 14 mph 1014.2mb 41f 48f
10:42 10 14 mph 1014.2mb 41f 48f
10:36 10 13 mph 1014.2mb 41f 48f
10:30 7 11 mph 1014.2mb 41f 48f
10:24 6 8 mph 1014.1mb 41f 48f
10:18 6 11 mph 1014mb 41f 48f
10:12 10 14 mph 1013.9mb 41f 48f
10:06 11 15 mph 1013.9mb 41f 48f
10:00 10 16 mph 1013.9mb 41f 48f
9:54 8 11 mph 1013.9mb 41f 48f
9:48 6 10 mph 1014mb 41f 48f
9:42 7 10 mph 1014mb 41f 48f
9:36 6 9 mph 1014mb 41f 49f
9:30 8 10 mph 1014mb 41f 48f
9:24 7 10 mph 1013.9mb 41f 48f
9:18 7 10 mph 1014mb 41f 48f
9:12 9 11 mph 1014.1mb 41f 48f
9:06 7 9 mph 1014.1mb 41f 48f
9:00 7 10 mph 1014.2mb 41f 48f
8:54 7 8 mph 1014.1mb 41f 47f
8:48 7 9 mph 1014.1mb 41f 47f
8:42 7 8 mph 1013.9mb 41f 46f
8:36 7 8 mph 1013.9mb 41f 47f
8:30 8 9 mph 1013.9mb 41f 46f
8:24 6 7 mph 1013.9mb 41f 47f
8:18 7 10 mph 1013.9mb 41f 47f
8:12 6 10 mph 1014mb 41f 48f
8:06 7 9 mph 1014mb 41f 47f
8:00 8 10 mph 1014mb 41f 47f
7:48 9 13 mph 1014.3mb 41f 47f
7:42 8 13 mph 1014.3mb 41f 47f
7:36 9 11 mph 1014.3mb 41f 48f
7:30 9 11 mph 1014.3mb 41f 47f
7:24 9 13 mph 1014.1mb 42f 47f
7:18 9 11 mph 1014.2mb 42f 47f
7:12 10 11 mph 1014.1mb 42f 48f
7:06 8 10 mph 1014.1mb 42f 48f
7:00 7 8 mph 1014mb 42f 48f
6:54 3 6 mph 1013.9mb 42f 48f
6:48 5 8 mph 1013.8mb 42f 48f
6:42 5 8 mph 1013.8mb 42f 47f
6:36 5 6 mph 1013.8mb 42f 47f
6:30 5 7 mph 1013.7mb 42f 47f
6:24 5 6 mph 1013.8mb 42f 47f
6:18 3 7 mph 1013.7mb 42f 47f
6:12 5 9 mph 1013.6mb 42f 47f
6:06 7 9 mph 1013.5mb 42f 47f
6:00 5 9 mph 1013.4mb 42f 47f
5:54 6 8 mph 1013.4mb 42f 47f
5:48 6 8 mph 1013.2mb 41f 46f
5:42 7 8 mph 1013.1mb 41f 47f
5:36 5 6 mph 1013.2mb 41f 47f
5:30 2 6 mph 1013.1mb 41f 47f
5:24 1 5 mph 1013mb 41f 47f
5:18 2 5 mph 1012.9mb 41f 47f
5:12 2 7 mph 1012.9mb 41f 47f
5:06 3 8 mph 1012.8mb 41f 48f
5:00 7 9 mph 1012.8mb 41f 47f
4:54 7 10 mph 1012.9mb 41f 46f
4:48 6 7 mph 1012.9mb 41f 46f
4:42 6 7 mph 1013mb 41f 47f
4:36 6 7 mph 1013mb 41f 48f
4:30 7 9 mph 1013mb 41f 48f
4:24 8 10 mph 1013.1mb 41f 48f
4:18 9 10 mph 1013.1mb 41f 48f
4:12 9 11 mph 1013.1mb 41f 49f
4:06 8 15 mph 1013.2mb 41f 48f
4:00 11 14 mph 1013mb 41f 48f
3:54 3 8 mph 1012.9mb 41f 51f
3:48 6 8 mph 1012.9mb 41f 51f
3:42 5 11 mph 1012.9mb 41f 52f
3:36 7 10 mph 1013mb 41f 52f
3:30 6 11 mph 1013mb 41f 52f
3:24 7 15 mph 1012.9mb 41f 52f
3:18 7 14 mph 1012.9mb 41f 52f
3:12 7 16 mph 1012.8mb 41f 52f
3:06 6 13 mph 1012.7mb 41f 52f
3:00 10 14 mph 1012.6mb 41f 52f
2:54 9 18 mph 1012.5mb 41f 53f
2:48 9 16 mph 1012.4mb 41f 53f
2:42 8 17 mph 1012.3mb 41f 53f
2:36 11 17 mph 1012.3mb 41f 53f
2:30 6 18 mph 1012.3mb 41f 53f
2:24 9 18 mph 1012.3mb 41f 53f
2:18 10 17 mph 1012.3mb 41f 53f
2:12 9 18 mph 1012.3mb 41f 53f
2:06 10 17 mph 1012.4mb 41f 52f
2:00 13 22 mph 1012.5mb 41f 53f
1:54 7 15 mph 1012.6mb 41f 51f
1:48 11 15 mph 1012.8mb 41f 51f
1:42 8 13 mph 1012.8mb 41f 51f
1:36 8 13 mph 1012.9mb 41f 51f
1:30 9 13 mph 1013mb 41f 51f
1:24 8 11 mph 1013.1mb 41f 51f
1:18 8 17 mph 1013.2mb 41f 51f
1:12 11 17 mph 1013.3mb 41f 51f
1:06 13 20 mph 1013.3mb 41f 51f
1:00 14 18 mph 1013.4mb 41f 51f
12:54 13 20 mph 1013.4mb 41f 51f
12:48 13 17 mph 1013.4mb 41f 52f
12:42 8 11 mph 1013.4mb 41f 52f
12:36 8 14 mph 1013.3mb 42f 52f
12:30 14 18 mph 1013.4mb 42f 52f
12:24 9 14 mph 1013.4mb 42f 52f
12:18 10 17 mph 1013.5mb 41f 51f
12:12 10 16 mph 1013.6mb 41f 51f
12:06 11 18 mph 1013.6mb 41f 51f
12:00 15 23 mph 1013.6mb 41f 51f
mié 04/26 11:54 10 20 mph 1013.6mb 41f 51f
11:48 10 16 mph 1013.5mb 41f 51f
11:42 11 15 mph 1013.6mb 41f 48f
11:36 11 16 mph 1013.6mb 41f 48f
11:30 10 14 mph 1013.7mb 41f 50f
11:24 10 16 mph 1013.7mb 41f 51f
11:18 11 17 mph 1013.8mb 41f 51f
11:12 11 18 mph 1013.8mb 41f 51f
11:06 14 21 mph 1013.9mb 41f 51f
11:00 11 16 mph 1014.1mb 41f 51f
10:54 11 17 mph 1014.2mb 41f 52f
10:48 9 16 mph 1014.3mb 41f 51f
10:42 11 16 mph 1014.3mb 41f 51f
10:36 9 17 mph 1014.4mb 41f 52f
10:30 11 23 mph 1014.4mb 41f 52f
10:24 10 15 mph 1014.4mb 41f 52f
10:18 10 14 mph 1014.5mb 41f 52f
10:12 8 15 mph 1014.6mb 41f 52f
10:06 5 13 mph 1014.6mb 41f 52f
10:00 8 13 mph 1014.7mb 41f 52f
9:48 9 14 mph 1014.6mb 41f 52f
9:42 7 13 mph 1014.7mb 41f 52f
9:36 8 14 mph 1014.7mb 41f 52f
9:30 7 17 mph 1014.7mb 41f 52f
9:24 11 21 mph 1014.7mb 41f 52f
9:18 9 18 mph 1014.8mb 41f 52f
9:12 9 17 mph 1014.8mb 41f 52f
9:06 9 17 mph 1014.7mb 41f 52f
9:00 9 15 mph 1014.8mb 41f 52f
8:48 11 17 mph 1014.8mb 41f 52f